When you browse on this site, cookies collect data to enhance your experience and personalize the content and advertising you see.
Visit our Privacy Policy to learn more. By continuing to use the site, you agree to this use of cookies and data.
  • En España
  • Lista de países
  • Para 7 días
  • Temperatura del agua
  • Mapa Satelital
  • El tiempo en el mapa
  • Informadores
  • user-avatar
    Iniciar sesión

    Tiempo cada hora Trinidad

    Hoy, 21 Enero, Lunes

    Tiempo Temperatura Precipitaciones Viento Presión Humedad
    00:00 +26°C° 0.1 mm 1 mps 745 mmHg 84%
    01:00 +26°C° 0.1 mm 1 mps 745 mmHg 87%
    02:00 +23°C° 0.1 mm 0 mps 745 mmHg 89%
    03:00 +23°C° 0 mm 0 mps 745 mmHg 90%
    04:00 +23°C° 0 mm 0 mps 745 mmHg 91%
    05:00 +22°C° 0 mm 0 mps 745 mmHg 92%
    06:00 +24°C° 0 mm 0 mps 745 mmHg 88%
    07:00 +25°C° 0 mm 0 mps 745 mmHg 84%
    08:00 +26°C° 0 mm 0 mps 746 mmHg 80%
    09:00 +29°C° 0 mm 0 mps 746 mmHg 71%
    10:00 +31°C° 0 mm 0 mps 746 mmHg 63%
    11:00 +34°C° 0 mm 0 mps 746 mmHg 54%
    12:00 +36°C° 0.1 mm 1 mps 745 mmHg 53%
    13:00 +36°C° 0.1 mm 1 mps 744 mmHg 53%
    14:00 +36°C° 0.1 mm 2 mps 744 mmHg 52%
    15:00 +36°C° 0.3 mm 2 mps 743 mmHg 55%
    16:00 +35°C° 0.3 mm 2 mps 743 mmHg 58%
    17:00 +34°C° 0.3 mm 2 mps 742 mmHg 61%
    18:00 +32°C° 0 mm 1 mps 742 mmHg 67%
    19:00 +30°C° 0 mm 1 mps 743 mmHg 72%
    20:00 +29°C° 0 mm 1 mps 743 mmHg 78%
    21:00 +28°C° 0.3 mm 1 mps 744 mmHg 81%
    22:00 +28°C° 0.3 mm 1 mps 744 mmHg 84%
    23:00 +27°C° 0.3 mm 1 mps 745 mmHg 87%

    Mañana, 22 Enero, Martes

    Tiempo Temperatura Precipitaciones Viento Presión Humedad
    00:00 +27°C° 0.7 mm 1 mps 745 mmHg 89%
    01:00 +26°C° 0.7 mm 1 mps 744 mmHg 91%
    02:00 +26°C° 0.7 mm 1 mps 744 mmHg 93%
    03:00 +24°C° 0 mm 0 mps 744 mmHg 93%
    04:00 +24°C° 0 mm 0 mps 744 mmHg 93%
    05:00 +23°C° 0 mm 0 mps 744 mmHg 93%
    06:00 +24°C° 0.9 mm 0 mps 745 mmHg 92%
    07:00 +25°C° 0.9 mm 0 mps 745 mmHg 90%
    08:00 +26°C° 0.9 mm 0 mps 746 mmHg 89%
    09:00 +30°C° 1 mm 1 mps 746 mmHg 81%
    10:00 +31°C° 1 mm 1 mps 746 mmHg 73%
    11:00 +33°C° 1 mm 1 mps 746 mmHg 65%
    12:00 +32°C° 1 mm 1 mps 745 mmHg 68%
    13:00 +32°C° 1 mm 2 mps 745 mmHg 71%
    14:00 +31°C° 1 mm 2 mps 744 mmHg 74%
    15:00 +32°C° 0 mm 2 mps 743 mmHg 72%
    16:00 +32°C° 0 mm 2 mps 743 mmHg 70%
    17:00 +32°C° 0 mm 2 mps 742 mmHg 68%
    18:00 +31°C° 0 mm 1 mps 743 mmHg 73%
    19:00 +30°C° 0 mm 1 mps 743 mmHg 78%
    20:00 +28°C° 0 mm 1 mps 744 mmHg 84%
    21:00 +28°C° 0 mm 1 mps 744 mmHg 86%
    22:00 +27°C° 0 mm 1 mps 745 mmHg 88%
    23:00 +27°C° 0 mm 1 mps 746 mmHg 91%

    Pasado mañana, 23 Enero, Miércoles

    Tiempo Temperatura Precipitaciones Viento Presión Humedad
    00:00 +26°C° 0 mm 1 mps 745 mmHg 91%
    01:00 +26°C° 0 mm 2 mps 745 mmHg 91%
    02:00 +26°C° 0 mm 2 mps 745 mmHg 91%
    03:00 +26°C° 0 mm 2 mps 744 mmHg 91%
    04:00 +26°C° 0 mm 1 mps 744 mmHg 91%
    05:00 +26°C° 0 mm 1 mps 744 mmHg 91%
    06:00 +26°C° 0 mm 1 mps 745 mmHg 88%
    07:00 +27°C° 0 mm 2 mps 745 mmHg 86%
    08:00 +28°C° 0 mm 2 mps 746 mmHg 84%
    09:00 +29°C° 0 mm 2 mps 746 mmHg 78%
    10:00 +30°C° 0 mm 2 mps 747 mmHg 73%
    11:00 +31°C° 0 mm 3 mps 747 mmHg 67%
    12:00 +32°C° 0 mm 2 mps 746 mmHg 64%
    13:00 +34°C° 0 mm 2 mps 745 mmHg 60%
    14:00 +35°C° 0 mm 2 mps 744 mmHg 57%
    15:00 +35°C° 0 mm 2 mps 743 mmHg 59%
    16:00 +35°C° 0 mm 2 mps 742 mmHg 61%
    17:00 +34°C° 0 mm 2 mps 742 mmHg 63%
    18:00 +32°C° 0 mm 2 mps 742 mmHg 70%
    19:00 +30°C° 0 mm 1 mps 742 mmHg 77%
    20:00 +28°C° 0 mm 1 mps 743 mmHg 84%
    21:00 +28°C° 0 mm 1 mps 743 mmHg 87%
    22:00 +27°C° 0 mm 1 mps 744 mmHg 89%
    23:00 +27°C° 0 mm 1 mps 744 mmHg 92%

    24 Enero, Jueves

    Tiempo Temperatura Precipitaciones Viento Presión Humedad
    00:00 +26°C° 0 mm 1 mps 744 mmHg 91%
    01:00 +26°C° 0 mm 1 mps 744 mmHg 91%
    02:00 +26°C° 0 mm 1 mps 743 mmHg 91%
    03:00 +26°C° 0 mm 1 mps 743 mmHg 92%
    04:00 +25°C° 0 mm 1 mps 743 mmHg 92%
    05:00 +25°C° 0 mm 1 mps 743 mmHg 93%
    06:00 +26°C° 0 mm 1 mps 744 mmHg 89%
    07:00 +27°C° 0 mm 1 mps 744 mmHg 86%
    08:00 +28°C° 0 mm 1 mps 745 mmHg 82%
    09:00 +30°C° 0 mm 1 mps 745 mmHg 74%
    10:00 +32°C° 0 mm 2 mps 745 mmHg 65%
    11:00 +35°C° 0 mm 2 mps 745 mmHg 56%
    12:00 +36°C° 0 mm 2 mps 744 mmHg 53%
    13:00 +37°C° 0 mm 2 mps 743 mmHg 49%
    14:00 +38°C° 0 mm 2 mps 742 mmHg 46%
    15:00 +38°C° 0 mm 2 mps 742 mmHg 48%
    16:00 +37°C° 0 mm 2 mps 741 mmHg 51%
    17:00 +37°C° 0 mm 2 mps 740 mmHg 53%
    18:00 +35°C° 0 mm 2 mps 740 mmHg 60%
    19:00 +32°C° 0 mm 1 mps 741 mmHg 67%
    20:00 +30°C° 0 mm 1 mps 741 mmHg 74%
    21:00 +29°C° 0 mm 1 mps 742 mmHg 75%
    22:00 +29°C° 0 mm 1 mps 742 mmHg 77%
    23:00 +28°C° 0 mm 1 mps 743 mmHg 79%

    25 Enero, Viernes

    Tiempo Temperatura Precipitaciones Viento Presión Humedad
    00:00 +28°C° 0 mm 1 mps 742 mmHg 81%
    01:00 +28°C° 0 mm 1 mps 742 mmHg 82%
    02:00 +27°C° 0 mm 1 mps 742 mmHg 83%
    03:00 +27°C° 0 mm 1 mps 742 mmHg 84%
    04:00 +27°C° 0 mm 1 mps 742 mmHg 85%
    05:00 +27°C° 0 mm 2 mps 742 mmHg 86%
    06:00 +27°C° 0 mm 2 mps 742 mmHg 84%
    07:00 +28°C° 0 mm 2 mps 743 mmHg 81%
    08:00 +29°C° 0 mm 2 mps 744 mmHg 79%
    09:00 +31°C° 0 mm 2 mps 743 mmHg 72%
    10:00 +34°C° 0 mm 2 mps 743 mmHg 65%
    11:00 +36°C° 0 mm 3 mps 743 mmHg 58%
    12:00 +37°C° 0.1 mm 3 mps 743 mmHg 56%
    13:00 +37°C° 0.1 mm 3 mps 742 mmHg 54%
    14:00 +38°C° 0.1 mm 3 mps 741 mmHg 52%
    15:00 +37°C° 0.2 mm 3 mps 740 mmHg 56%
    16:00 +36°C° 0.2 mm 3 mps 739 mmHg 60%
    17:00 +35°C° 0.2 mm 3 mps 739 mmHg 64%
    18:00 +32°C° 0 mm 2 mps 739 mmHg 70%
    19:00 +31°C° 0 mm 2 mps 739 mmHg 77%
    20:00 +29°C° 0 mm 1 mps 740 mmHg 83%
    21:00 +29°C° 0 mm 1 mps 740 mmHg 85%
    22:00 +29°C° 0 mm 1 mps 741 mmHg 86%
    23:00 +28°C° 0 mm 1 mps 742 mmHg 88%

    26 Enero, Sábado

    Tiempo Temperatura Precipitaciones Viento Presión Humedad
    00:00 +28°C° 0 mm 1 mps 742 mmHg 88%
    01:00 +28°C° 0 mm 2 mps 742 mmHg 88%
    02:00 +28°C° 0 mm 2 mps 741 mmHg 88%
    03:00 +27°C° 0 mm 1 mps 741 mmHg 89%
    04:00 +27°C° 0 mm 1 mps 741 mmHg 90%
    05:00 +26°C° 0 mm 1 mps 741 mmHg 91%
    06:00 +27°C° 0 mm 1 mps 742 mmHg 87%
    07:00 +28°C° 0 mm 2 mps 743 mmHg 83%
    08:00 +29°C° 0 mm 2 mps 743 mmHg 79%
    09:00 +31°C° 0.2 mm 2 mps 743 mmHg 72%
    10:00 +34°C° 0.2 mm 3 mps 743 mmHg 65%
    11:00 +35°C° 0.2 mm 3 mps 743 mmHg 58%
    12:00 +36°C° 0 mm 3 mps 743 mmHg 56%
    13:00 +37°C° 0 mm 3 mps 742 mmHg 54%
    14:00 +37°C° 0 mm 3 mps 741 mmHg 52%
    15:00 +37°C° 0 mm 3 mps 740 mmHg 54%
    16:00 +37°C° 0 mm 3 mps 739 mmHg 56%
    17:00 +36°C° 0 mm 3 mps 739 mmHg 58%
    18:00 +34°C° 0 mm 2 mps 739 mmHg 65%
    19:00 +32°C° 0 mm 2 mps 740 mmHg 71%
    20:00 +30°C° 0 mm 1 mps 740 mmHg 78%
    21:00 +30°C° 0 mm 1 mps 741 mmHg 80%
    22:00 +29°C° 0 mm 1 mps 742 mmHg 81%
    23:00 +29°C° 0 mm 1 mps 742 mmHg 83%
    Mostrar más